greek

ΠΛΗΡΟΦΟΡΙΕΣ ΚΑΙΡΟΥ

english


LGTT 191000Z 11004KT CAVOK 29/15 Q1011 RMK SCT080 BKN180
TAF LGTT 190700Z 1909/1918 VRB05KT 8000 FEW025 PROB30 TEMPO 1910/1914 RA FEW018TCU SCT020

 Print LGTT local weather
 EMY AVIATION
 EMY LGTT
 Forecast LGTT
 EMY LGMG
 EMY LGEL
 EMY LGTG
 EMY LGAV
 EMY LGAT
 Latest METAR Reports (OGIMET)
 Latest TAF Reports (OGIMET)
 Greece Forecast
 www.windy.com
 www.meteoblue.com
 www.meteo.gr
 SAT 24h
 UK Met Office
 www.kifissiameteo.gr
 forecast.uoa.gr
 www.ntua.gr/weather/
 https://www.autorouter.aero/gramet
 https://aviationweather-cprk.ncep.noaa.gov/sigmet/

Στο τηλέφωνο 210-3533689 μπορείτε να πάρετε πληροφορίες για την πτήση σας σε οποιοδήποτε σημείο της χώρας.